owner,sensor,date,latitude,longitude,vertical_datum,wind_speed,wind_to_direction,wind_speed_of_gust,qcFlag 
COMPS,ioos:station:USF.COMPS:C12:1,2019-03-01T00:05:00Z,27.4980,-83.7220,3.0,1.32,87.48,1.92,'1111122,1111122,1111122' 
COMPS,ioos:station:USF.COMPS:C12:1,2019-03-01T00:35:00Z,27.4980,-83.7220,3.0,1.18,65.96,1.77,'1111122,1111122,1111122' 
COMPS,ioos:station:USF.COMPS:C12:1,2019-03-01T01:05:00Z,27.4980,-83.7220,3.0,2.02,85.41,2.78,'1111122,1111122,1111122' 
COMPS,ioos:station:USF.COMPS:C12:1,2019-03-01T01:35:00Z,27.4980,-83.7220,3.0,2.21,90.21,2.91,'1111122,1111122,1111122' 
COMPS,ioos:station:USF.COMPS:C12:1,2019-03-01T02:05:00Z,27.4980,-83.7220,3.0,2.32,106.3,2.99,'1111122,1111122,1111122' 
COMPS,ioos:station:USF.COMPS:C12:1,2019-03-01T02:35:00Z,27.4980,-83.7220,3.0,2.64,114.97,3.4,'1111122,1111122,1111122' 
COMPS,ioos:station:USF.COMPS:C12:1,2019-03-01T03:05:00Z,27.4980,-83.7220,3.0,2.56,128.77,3.37,'1111122,1111122,1111122' 
COMPS,ioos:station:USF.COMPS:C12:1,2019-03-01T03:35:00Z,27.4980,-83.7220,3.0,2.83,127.51,3.44,'1111122,1111122,1111122' 
COMPS,ioos:station:USF.COMPS:C12:1,2019-03-01T04:05:00Z,27.4980,-83.7220,3.0,2.76,132.12,3.7,'1111122,1111122,1111122' 
COMPS,ioos:station:USF.COMPS:C12:1,2019-03-01T04:35:00Z,27.4980,-83.7220,3.0,3.12,137.75,3.77,'1111122,1111122,1111122' 
COMPS,ioos:station:USF.COMPS:C12:1,2019-03-01T05:05:00Z,27.4980,-83.7220,3.0,2.84,140.18,3.53,'1111122,1111122,1111122' 
COMPS,ioos:station:USF.COMPS:C12:1,2019-03-01T05:35:00Z,27.4980,-83.7220,3.0,3.05,138.48,3.96,'1111122,1111122,1111122' 
COMPS,ioos:station:USF.COMPS:C12:1,2019-03-01T06:05:00Z,27.4980,-83.7220,3.0,2.23,132.25,2.79,'1111122,1111122,1111122' 
COMPS,ioos:station:USF.COMPS:C12:1,2019-03-01T06:35:00Z,27.4980,-83.7220,3.0,2.46,136.79,3.0,'1111122,1111122,1111122' 
COMPS,ioos:station:USF.COMPS:C12:1,2019-03-01T07:05:00Z,27.4980,-83.7220,3.0,2.33,151.56,2.97,'1111122,1111122,1111122' 
COMPS,ioos:station:USF.COMPS:C12:1,2019-03-01T07:35:00Z,27.4980,-83.7220,3.0,2.34,152.92,2.79,'1111122,1111122,1111122' 
COMPS,ioos:station:USF.COMPS:C12:1,2019-03-01T08:05:00Z,27.4980,-83.7220,3.0,1.97,148.27,2.38,'1111122,1111122,1111122' 
COMPS,ioos:station:USF.COMPS:C12:1,2019-03-01T08:35:00Z,27.4980,-83.7220,3.0,1.18,149.23,1.83,'1111122,1111122,1111122' 
COMPS,ioos:station:USF.COMPS:C12:1,2019-03-01T09:05:00Z,27.4980,-83.7220,3.0,1.91,175.22,2.42,'1111122,1111122,1111122' 
COMPS,ioos:station:USF.COMPS:C12:1,2019-03-01T09:35:00Z,27.4980,-83.7220,3.0,2.81,194.53,3.47,'1111122,1111122,1111122' 
COMPS,ioos:station:USF.COMPS:C12:1,2019-03-01T10:05:00Z,27.4980,-83.7220,3.0,1.66,162.94,2.46,'1111122,1111122,1111122' 
COMPS,ioos:station:USF.COMPS:C12:1,2019-03-01T10:35:00Z,27.4980,-83.7220,3.0,2.16,149.71,2.74,'1111122,1111122,1111122' 
COMPS,ioos:station:USF.COMPS:C12:1,2019-03-01T11:05:00Z,27.4980,-83.7220,3.0,1.49,202.41,2.39,'1111122,1111122,1111122' 
COMPS,ioos:station:USF.COMPS:C12:1,2019-03-01T11:35:00Z,27.4980,-83.7220,3.0,1.85,159.66,2.07,'1111122,1111122,1111122' 
COMPS,ioos:station:USF.COMPS:C12:1,2019-03-01T12:05:00Z,27.4980,-83.7220,3.0,1.54,120.72,2.24,'1111122,1111122,1111122' 
COMPS,ioos:station:USF.COMPS:C12:1,2019-03-01T12:35:00Z,27.4980,-83.7220,3.0,1.95,108.96,2.32,'1111122,1111122,1111122' 
COMPS,ioos:station:USF.COMPS:C12:1,2019-03-01T13:05:00Z,27.4980,-83.7220,3.0,1.05,86.55,1.6,'1111122,1111122,1111122' 
COMPS,ioos:station:USF.COMPS:C12:1,2019-03-01T13:35:00Z,27.4980,-83.7220,3.0,1.05,104.65,1.36,'1111122,1111122,1111122' 
COMPS,ioos:station:USF.COMPS:C12:1,2019-03-01T14:05:00Z,27.4980,-83.7220,3.0,2.71,108.55,3.48,'1111122,1111122,1111122' 
COMPS,ioos:station:USF.COMPS:C12:1,2019-03-01T14:35:00Z,27.4980,-83.7220,3.0,3.59,116.34,4.17,'1111122,1111122,1111122' 
COMPS,ioos:station:USF.COMPS:C12:1,2019-03-01T15:05:00Z,27.4980,-83.7220,3.0,3.17,140.16,3.71,'1111122,1111122,1111122' 
COMPS,ioos:station:USF.COMPS:C12:1,2019-03-01T15:35:00Z,27.4980,-83.7220,3.0,4.52,132.05,5.32,'1111122,1111122,1111122' 
COMPS,ioos:station:USF.COMPS:C12:1,2019-03-01T16:05:00Z,27.4980,-83.7220,3.0,5.16,125.8,6.22,'1111122,1111122,1111122' 
COMPS,ioos:station:USF.COMPS:C12:1,2019-03-01T16:35:00Z,27.4980,-83.7220,3.0,4.81,140.43,5.74,'1111122,1111122,1111122' 
COMPS,ioos:station:USF.COMPS:C12:1,2019-03-01T17:05:00Z,27.4980,-83.7220,3.0,4.72,145.36,5.73,'1111122,1111122,1111122' 
COMPS,ioos:station:USF.COMPS:C12:1,2019-03-01T17:35:00Z,27.4980,-83.7220,3.0,5.03,156.98,5.96,'1111122,1111122,1111122' 
COMPS,ioos:station:USF.COMPS:C12:1,2019-03-01T18:05:00Z,27.4980,-83.7220,3.0,5.64,158.95,6.86,'1111122,1111122,1111122' 
COMPS,ioos:station:USF.COMPS:C12:1,2019-03-01T18:35:00Z,27.4980,-83.7220,3.0,6.55,149.56,7.74,'1111122,1111122,1111122' 
COMPS,ioos:station:USF.COMPS:C12:1,2019-03-01T19:05:00Z,27.4980,-83.7220,3.0,5.89,149.94,7.11,'1111122,1111122,1111122' 
COMPS,ioos:station:USF.COMPS:C12:1,2019-03-01T19:35:00Z,27.4980,-83.7220,3.0,4.5,162.77,5.36,'1111122,1111122,1111122' 
COMPS,ioos:station:USF.COMPS:C12:1,2019-03-01T20:05:00Z,27.4980,-83.7220,3.0,4.56,166.13,5.51,'1111122,1111122,1111122' 
COMPS,ioos:station:USF.COMPS:C12:1,2019-03-01T20:35:00Z,27.4980,-83.7220,3.0,0.88,229.57,3.36,'1111122,1111122,1111122' 
COMPS,ioos:station:USF.COMPS:C12:1,2019-03-01T21:05:00Z,27.4980,-83.7220,3.0,1.96,262.41,2.78,'1111122,1111122,1111122' 
COMPS,ioos:station:USF.COMPS:C12:1,2019-03-01T21:35:00Z,27.4980,-83.7220,3.0,1.74,342.74,2.19,'1111122,1111122,1111122' 
COMPS,ioos:station:USF.COMPS:C12:1,2019-03-01T22:05:00Z,27.4980,-83.7220,3.0,1.25,100.87,2.23,'1111122,1111122,1111122' 
COMPS,ioos:station:USF.COMPS:C12:1,2019-03-01T22:35:00Z,27.4980,-83.7220,3.0,1.8,89.53,2.18,'1111122,1111122,1111122' 
COMPS,ioos:station:USF.COMPS:C12:1,2019-03-01T23:05:00Z,27.4980,-83.7220,3.0,2.9,129.1,3.37,'1111122,1111122,1111122' 
COMPS,ioos:station:USF.COMPS:C12:1,2019-03-01T23:35:00Z,27.4980,-83.7220,3.0,1.3,113.09,2.54,'1111122,1111122,1111122' 
COMPS,ioos:station:USF.COMPS:C12:1,2019-03-02T00:05:00Z,27.4980,-83.7220,3.0,1.98,84.73,2.5,'1111122,1111122,1111122' 
COMPS,ioos:station:USF.COMPS:C12:1,2019-03-02T00:35:00Z,27.4980,-83.7220,3.0,2.32,95.4,2.87,'1111122,1111122,1111122' 
COMPS,ioos:station:USF.COMPS:C12:1,2019-03-02T01:05:00Z,27.4980,-83.7220,3.0,1.99,85.73,2.4,'1111122,1111122,1111122' 
COMPS,ioos:station:USF.COMPS:C12:1,2019-03-02T01:35:00Z,27.4980,-83.7220,3.0,2.23,92.91,2.88,'1111122,1111122,1111122' 
COMPS,ioos:station:USF.COMPS:C12:1,2019-03-02T02:05:00Z,27.4980,-83.7220,3.0,2.96,114.87,3.69,'1111122,1111122,1111122' 
COMPS,ioos:station:USF.COMPS:C12:1,2019-03-02T02:35:00Z,27.4980,-83.7220,3.0,2.85,141.42,3.4,'1111122,1111122,1111122' 
COMPS,ioos:station:USF.COMPS:C12:1,2019-03-02T03:05:00Z,27.4980,-83.7220,3.0,3.07,141.95,3.63,'1111122,1111122,1111122' 
COMPS,ioos:station:USF.COMPS:C12:1,2019-03-02T03:35:00Z,27.4980,-83.7220,3.0,2.91,151.98,3.52,'1111122,1111122,1111122' 
COMPS,ioos:station:USF.COMPS:C12:1,2019-03-02T04:05:00Z,27.4980,-83.7220,3.0,1.81,164.01,2.3,'1111122,1111122,1111122' 
COMPS,ioos:station:USF.COMPS:C12:1,2019-03-02T04:35:00Z,27.4980,-83.7220,3.0,2.19,157.66,2.65,'1111122,1111122,1111122' 
COMPS,ioos:station:USF.COMPS:C12:1,2019-03-02T05:05:00Z,27.4980,-83.7220,3.0,2.19,152.68,2.63,'1111122,1111122,1111122' 
COMPS,ioos:station:USF.COMPS:C12:1,2019-03-02T05:35:00Z,27.4980,-83.7220,3.0,2.76,151.77,3.41,'1111122,1111122,1111122' 
COMPS,ioos:station:USF.COMPS:C12:1,2019-03-02T06:05:00Z,27.4980,-83.7220,3.0,2.2,170.19,2.75,'1111122,1111122,1111122' 
COMPS,ioos:station:USF.COMPS:C12:1,2019-03-02T06:35:00Z,27.4980,-83.7220,3.0,3.19,147.14,3.8,'1111122,1111122,1111122' 
COMPS,ioos:station:USF.COMPS:C12:1,2019-03-02T07:05:00Z,27.4980,-83.7220,3.0,2.85,161.07,3.42,'1111122,1111122,1111122' 
COMPS,ioos:station:USF.COMPS:C12:1,2019-03-02T07:35:00Z,27.4980,-83.7220,3.0,2.89,172.73,3.36,'1111122,1111122,1111122' 
COMPS,ioos:station:USF.COMPS:C12:1,2019-03-02T08:05:00Z,27.4980,-83.7220,3.0,3.8,158.1,4.32,'1111122,1111122,1111122' 
COMPS,ioos:station:USF.COMPS:C12:1,2019-03-02T08:35:00Z,27.4980,-83.7220,3.0,3.66,160.15,4.41,'1111122,1111122,1111122' 
COMPS,ioos:station:USF.COMPS:C12:1,2019-03-02T09:05:00Z,27.4980,-83.7220,3.0,2.26,163.08,3.4,'1111122,1111122,1111122' 
COMPS,ioos:station:USF.COMPS:C12:1,2019-03-02T09:35:00Z,27.4980,-83.7220,3.0,1.48,198.84,2.28,'1111122,1111122,1111122' 
COMPS,ioos:station:USF.COMPS:C12:1,2019-03-02T10:05:00Z,27.4980,-83.7220,3.0,1.48,215.39,2.05,'1111122,1111122,1111122' 
COMPS,ioos:station:USF.COMPS:C12:1,2019-03-02T10:35:00Z,27.4980,-83.7220,3.0,2.21,188.77,2.69,'1111122,1111122,1111122' 
COMPS,ioos:station:USF.COMPS:C12:1,2019-03-02T11:05:00Z,27.4980,-83.7220,3.0,1.19,153.74,1.84,'1111122,1111122,1111122' 
COMPS,ioos:station:USF.COMPS:C12:1,2019-03-02T11:35:00Z,27.4980,-83.7220,3.0,2.78,131.92,4.01,'1111122,1111122,1111122' 
COMPS,ioos:station:USF.COMPS:C12:1,2019-03-02T12:05:00Z,27.4980,-83.7220,3.0,4.39,122.65,5.11,'1111122,1111122,1111122' 
COMPS,ioos:station:USF.COMPS:C12:1,2019-03-02T12:35:00Z,27.4980,-83.7220,3.0,3.71,131.12,4.34,'1111122,1111122,1111122' 
COMPS,ioos:station:USF.COMPS:C12:1,2019-03-02T13:05:00Z,27.4980,-83.7220,3.0,4.48,131.72,5.33,'1111122,1111122,1111122' 
COMPS,ioos:station:USF.COMPS:C12:1,2019-03-02T13:35:00Z,27.4980,-83.7220,3.0,4.62,132.3,6.02,'1111122,1111122,1111122' 
COMPS,ioos:station:USF.COMPS:C12:1,2019-03-02T14:05:00Z,27.4980,-83.7220,3.0,3.18,154.91,5.23,'1111122,1111122,1111122' 
COMPS,ioos:station:USF.COMPS:C12:1,2019-03-02T14:35:00Z,27.4980,-83.7220,3.0,3.84,152.01,4.48,'1111122,1111122,1111122' 
COMPS,ioos:station:USF.COMPS:C12:1,2019-03-02T15:05:00Z,27.4980,-83.7220,3.0,3.29,171.2,4.32,'1111122,1111122,1111122' 
COMPS,ioos:station:USF.COMPS:C12:1,2019-03-02T15:35:00Z,27.4980,-83.7220,3.0,2.87,173.28,3.6,'1111122,1111122,1111122' 
COMPS,ioos:station:USF.COMPS:C12:1,2019-03-02T16:05:00Z,27.4980,-83.7220,3.0,2.81,166.1,3.5,'1111122,1111122,1111122' 
COMPS,ioos:station:USF.COMPS:C12:1,2019-03-02T16:35:00Z,27.4980,-83.7220,3.0,3.52,165.19,4.6,'1111122,1111122,1111122' 
COMPS,ioos:station:USF.COMPS:C12:1,2019-03-02T17:05:00Z,27.4980,-83.7220,3.0,3.89,161.76,4.81,'1111122,1111122,1111122' 
COMPS,ioos:station:USF.COMPS:C12:1,2019-03-02T17:35:00Z,27.4980,-83.7220,3.0,3.47,160.64,4.13,'1111122,1111122,1111122' 
COMPS,ioos:station:USF.COMPS:C12:1,2019-03-02T18:05:00Z,27.4980,-83.7220,3.0,4.13,160.07,5.05,'1111122,1111122,1111122' 
COMPS,ioos:station:USF.COMPS:C12:1,2019-03-02T18:35:00Z,27.4980,-83.7220,3.0,4.49,168.76,5.39,'1111122,1111122,1111122' 
COMPS,ioos:station:USF.COMPS:C12:1,2019-03-02T19:05:00Z,27.4980,-83.7220,3.0,4.82,170.03,5.94,'1111122,1111122,1111122' 
COMPS,ioos:station:USF.COMPS:C12:1,2019-03-02T19:35:00Z,27.4980,-83.7220,3.0,4.74,167.12,5.79,'1111122,1111122,1111122' 
COMPS,ioos:station:USF.COMPS:C12:1,2019-03-02T20:05:00Z,27.4980,-83.7220,3.0,4.3,166.13,5.12,'1111122,1111122,1111122' 
COMPS,ioos:station:USF.COMPS:C12:1,2019-03-02T20:35:00Z,27.4980,-83.7220,3.0,3.81,181.35,4.52,'1111122,1111122,1111122' 
COMPS,ioos:station:USF.COMPS:C12:1,2019-03-02T21:05:00Z,27.4980,-83.7220,3.0,3.49,189.19,4.1,'1111122,1111122,1111122' 
COMPS,ioos:station:USF.COMPS:C12:1,2019-03-02T21:35:00Z,27.4980,-83.7220,3.0,2.66,192.27,3.27,'1111122,1111122,1111122' 
COMPS,ioos:station:USF.COMPS:C12:1,2019-03-02T22:05:00Z,27.4980,-83.7220,3.0,1.9,212.86,2.29,'1111122,1111122,1111122' 
COMPS,ioos:station:USF.COMPS:C12:1,2019-03-02T22:35:00Z,27.4980,-83.7220,3.0,1.68,194.16,2.03,'1111122,1111122,1111122' 
COMPS,ioos:station:USF.COMPS:C12:1,2019-03-02T23:05:00Z,27.4980,-83.7220,3.0,1.68,195.83,2.05,'1111122,1111122,1111122' 
COMPS,ioos:station:USF.COMPS:C12:1,2019-03-02T23:35:00Z,27.4980,-83.7220,3.0,2.13,187.15,2.53,'1111122,1111122,1111122' 
COMPS,ioos:station:USF.COMPS:C12:1,2019-03-03T00:05:00Z,27.4980,-83.7220,3.0,1.86,176.06,2.39,'1111122,1111122,1111122' 
COMPS,ioos:station:USF.COMPS:C12:1,2019-03-03T00:35:00Z,27.4980,-83.7220,3.0,1.2,154.65,1.71,'1111122,1111122,1111122' 
COMPS,ioos:station:USF.COMPS:C12:1,2019-03-03T01:05:00Z,27.4980,-83.7220,3.0,1.59,133.72,1.95,'1111122,1111122,1111122' 
COMPS,ioos:station:USF.COMPS:C12:1,2019-03-03T01:35:00Z,27.4980,-83.7220,3.0,1.34,113.4,1.69,'1111122,1111122,1111122' 
COMPS,ioos:station:USF.COMPS:C12:1,2019-03-03T02:05:00Z,27.4980,-83.7220,3.0,0.91,145.38,1.51,'1111122,1111122,1111122' 
COMPS,ioos:station:USF.COMPS:C12:1,2019-03-03T02:35:00Z,27.4980,-83.7220,3.0,1.53,160.49,2.06,'1111122,1111122,1111122' 
COMPS,ioos:station:USF.COMPS:C12:1,2019-03-03T03:05:00Z,27.4980,-83.7220,3.0,1.85,135.95,2.14,'1111122,1111122,1111122' 
COMPS,ioos:station:USF.COMPS:C12:1,2019-03-03T03:35:00Z,27.4980,-83.7220,3.0,2.06,133.24,2.67,'1111122,1111122,1111122' 
COMPS,ioos:station:USF.COMPS:C12:1,2019-03-03T04:05:00Z,27.4980,-83.7220,3.0,2.81,143.18,3.28,'1111122,1111122,1111122' 
COMPS,ioos:station:USF.COMPS:C12:1,2019-03-03T04:35:00Z,27.4980,-83.7220,3.0,2.38,152.54,3.03,'1111122,1111122,1111122' 
COMPS,ioos:station:USF.COMPS:C12:1,2019-03-03T05:05:00Z,27.4980,-83.7220,3.0,3.65,157.38,4.34,'1111122,1111122,1111122' 
COMPS,ioos:station:USF.COMPS:C12:1,2019-03-03T05:35:00Z,27.4980,-83.7220,3.0,3.63,165.93,4.25,'1111122,1111122,1111122' 
COMPS,ioos:station:USF.COMPS:C12:1,2019-03-03T06:05:00Z,27.4980,-83.7220,3.0,3.5,165.83,4.42,'1111122,1111122,1111122' 
COMPS,ioos:station:USF.COMPS:C12:1,2019-03-03T06:35:00Z,27.4980,-83.7220,3.0,3.11,189.69,3.77,'1111122,1111122,1111122' 
COMPS,ioos:station:USF.COMPS:C12:1,2019-03-03T07:05:00Z,27.4980,-83.7220,3.0,2.79,196.59,3.36,'1111122,1111122,1111122' 
COMPS,ioos:station:USF.COMPS:C12:1,2019-03-03T07:35:00Z,27.4980,-83.7220,3.0,2.67,203.31,3.17,'1111122,1111122,1111122' 
COMPS,ioos:station:USF.COMPS:C12:1,2019-03-03T08:05:00Z,27.4980,-83.7220,3.0,2.98,191.38,3.72,'1111122,1111122,1111122' 
COMPS,ioos:station:USF.COMPS:C12:1,2019-03-03T08:35:00Z,27.4980,-83.7220,3.0,3.18,210.83,3.88,'1111122,1111122,1111122' 
COMPS,ioos:station:USF.COMPS:C12:1,2019-03-03T09:05:00Z,27.4980,-83.7220,3.0,3.0,205.35,3.52,'1111122,1111122,1111122' 
COMPS,ioos:station:USF.COMPS:C12:1,2019-03-03T09:35:00Z,27.4980,-83.7220,3.0,2.98,216.66,3.57,'1111122,1111122,1111122' 
COMPS,ioos:station:USF.COMPS:C12:1,2019-03-03T10:05:00Z,27.4980,-83.7220,3.0,2.3,219.5,2.72,'1111122,1111122,1111122' 
COMPS,ioos:station:USF.COMPS:C12:1,2019-03-03T10:35:00Z,27.4980,-83.7220,3.0,2.3,184.39,2.87,'1111122,1111122,1111122' 
COMPS,ioos:station:USF.COMPS:C12:1,2019-03-03T11:05:00Z,27.4980,-83.7220,3.0,2.58,177.01,3.2,'1111122,1111122,1111122' 
COMPS,ioos:station:USF.COMPS:C12:1,2019-03-03T11:35:00Z,27.4980,-83.7220,3.0,1.76,169.28,2.44,'1111122,1111122,1111122' 
COMPS,ioos:station:USF.COMPS:C12:1,2019-03-03T12:05:00Z,27.4980,-83.7220,3.0,2.0,156.91,2.44,'1111122,1111122,1111122' 
COMPS,ioos:station:USF.COMPS:C12:1,2019-03-03T12:35:00Z,27.4980,-83.7220,3.0,2.33,157.44,2.82,'1111122,1111122,1111122' 
COMPS,ioos:station:USF.COMPS:C12:1,2019-03-03T13:05:00Z,27.4980,-83.7220,3.0,3.3,146.23,4.05,'1111122,1111122,1111122' 
COMPS,ioos:station:USF.COMPS:C12:1,2019-03-03T13:35:00Z,27.4980,-83.7220,3.0,3.94,142.61,4.98,'1111122,1111122,1111122' 
COMPS,ioos:station:USF.COMPS:C12:1,2019-03-03T14:05:00Z,27.4980,-83.7220,3.0,2.64,140.37,3.31,'1111122,1111122,1111122' 
COMPS,ioos:station:USF.COMPS:C12:1,2019-03-03T14:35:00Z,27.4980,-83.7220,3.0,2.87,141.02,3.69,'1111122,1111122,1111122' 
COMPS,ioos:station:USF.COMPS:C12:1,2019-03-03T15:05:00Z,27.4980,-83.7220,3.0,3.8,145.96,4.62,'1111122,1111122,1111122' 
COMPS,ioos:station:USF.COMPS:C12:1,2019-03-03T15:35:00Z,27.4980,-83.7220,3.0,4.59,144.55,5.71,'1111122,1111122,1111122' 
COMPS,ioos:station:USF.COMPS:C12:1,2019-03-03T16:05:00Z,27.4980,-83.7220,3.0,4.41,144.78,5.38,'1111122,1111122,1111122' 
COMPS,ioos:station:USF.COMPS:C12:1,2019-03-03T16:35:00Z,27.4980,-83.7220,3.0,2.83,159.65,3.55,'1111122,1111122,1111122' 
COMPS,ioos:station:USF.COMPS:C12:1,2019-03-03T17:05:00Z,27.4980,-83.7220,3.0,3.87,158.5,4.71,'1111122,1111122,1111122' 
COMPS,ioos:station:USF.COMPS:C12:1,2019-03-03T17:35:00Z,27.4980,-83.7220,3.0,3.85,145.3,4.58,'1111122,1111122,1111122' 
COMPS,ioos:station:USF.COMPS:C12:1,2019-03-03T18:05:00Z,27.4980,-83.7220,3.0,3.28,147.49,3.96,'1111122,1111122,1111122' 
COMPS,ioos:station:USF.COMPS:C12:1,2019-03-03T18:35:00Z,27.4980,-83.7220,3.0,4.67,154.44,5.45,'1111122,1111122,1111122' 
COMPS,ioos:station:USF.COMPS:C12:1,2019-03-03T19:05:00Z,27.4980,-83.7220,3.0,5.73,169.49,6.52,'1111122,1111122,1111122' 
COMPS,ioos:station:USF.COMPS:C12:1,2019-03-03T19:35:00Z,27.4980,-83.7220,3.0,5.91,177.64,7.28,'1111122,1111122,1111122' 
COMPS,ioos:station:USF.COMPS:C12:1,2019-03-03T20:05:00Z,27.4980,-83.7220,3.0,6.11,183.87,7.44,'1111122,1111122,1111122' 
COMPS,ioos:station:USF.COMPS:C12:1,2019-03-03T20:35:00Z,27.4980,-83.7220,3.0,5.73,187.89,7.23,'1111122,1111122,1111122' 
COMPS,ioos:station:USF.COMPS:C12:1,2019-03-03T21:05:00Z,27.4980,-83.7220,3.0,6.17,187.54,7.39,'1111122,1111122,1111122' 
COMPS,ioos:station:USF.COMPS:C12:1,2019-03-03T21:35:00Z,27.4980,-83.7220,3.0,6.35,188.67,7.62,'1111122,1111122,1111122' 
COMPS,ioos:station:USF.COMPS:C12:1,2019-03-03T22:05:00Z,27.4980,-83.7220,3.0,5.51,194.77,6.76,'1111122,1111122,1111122' 
COMPS,ioos:station:USF.COMPS:C12:1,2019-03-03T22:35:00Z,27.4980,-83.7220,3.0,6.1,193.4,7.39,'1111122,1111122,1111122' 
COMPS,ioos:station:USF.COMPS:C12:1,2019-03-03T23:05:00Z,27.4980,-83.7220,3.0,5.98,191.02,7.35,'1111122,1111122,1111122' 
COMPS,ioos:station:USF.COMPS:C12:1,2019-03-03T23:35:00Z,27.4980,-83.7220,3.0,6.11,191.98,7.38,'1111122,1111122,1111122' 
COMPS,ioos:station:USF.COMPS:C12:1,2019-03-04T00:05:00Z,27.4980,-83.7220,3.0,6.05,198.98,7.52,'1111122,1111122,1111122' 
COMPS,ioos:station:USF.COMPS:C12:1,2019-03-04T00:35:00Z,27.4980,-83.7220,3.0,5.72,199.56,6.94,'1111122,1111122,1111122' 
COMPS,ioos:station:USF.COMPS:C12:1,2019-03-04T01:05:00Z,27.4980,-83.7220,3.0,5.86,198.15,6.95,'1111122,1111122,1111122' 
COMPS,ioos:station:USF.COMPS:C12:1,2019-03-04T01:35:00Z,27.4980,-83.7220,3.0,5.85,196.16,7.25,'1111122,1111122,1111122' 
COMPS,ioos:station:USF.COMPS:C12:1,2019-03-04T02:05:00Z,27.4980,-83.7220,3.0,6.22,188.5,7.79,'1111122,1111122,1111122' 
COMPS,ioos:station:USF.COMPS:C12:1,2019-03-04T02:35:00Z,27.4980,-83.7220,3.0,6.28,189.69,7.5,'1111122,1111122,1111122' 
COMPS,ioos:station:USF.COMPS:C12:1,2019-03-04T03:05:00Z,27.4980,-83.7220,3.0,6.21,191.71,7.52,'1111122,1111122,1111122' 
COMPS,ioos:station:USF.COMPS:C12:1,2019-03-04T03:35:00Z,27.4980,-83.7220,3.0,5.54,198.27,6.72,'1111122,1111122,1111122' 
COMPS,ioos:station:USF.COMPS:C12:1,2019-03-04T04:05:00Z,27.4980,-83.7220,3.0,6.19,192.59,7.35,'1111122,1111122,1111122' 
COMPS,ioos:station:USF.COMPS:C12:1,2019-03-04T04:35:00Z,27.4980,-83.7220,3.0,6.18,189.4,7.5,'1111122,1111122,1111122' 
COMPS,ioos:station:USF.COMPS:C12:1,2019-03-04T05:05:00Z,27.4980,-83.7220,3.0,6.85,191.19,8.51,'1111122,1111122,1111122' 
COMPS,ioos:station:USF.COMPS:C12:1,2019-03-04T05:35:00Z,27.4980,-83.7220,3.0,7.07,196.9,8.57,'1111122,1111122,1111122' 
COMPS,ioos:station:USF.COMPS:C12:1,2019-03-04T06:05:00Z,27.4980,-83.7220,3.0,6.29,201.77,7.67,'1111122,1111122,1111122' 
COMPS,ioos:station:USF.COMPS:C12:1,2019-03-04T06:35:00Z,27.4980,-83.7220,3.0,5.33,199.73,6.46,'1111122,1111122,1111122' 
COMPS,ioos:station:USF.COMPS:C12:1,2019-03-04T07:05:00Z,27.4980,-83.7220,3.0,5.73,200.94,6.82,'1111122,1111122,1111122' 
COMPS,ioos:station:USF.COMPS:C12:1,2019-03-04T07:35:00Z,27.4980,-83.7220,3.0,5.93,206.75,7.02,'1111122,1111122,1111122' 
COMPS,ioos:station:USF.COMPS:C12:1,2019-03-04T08:05:00Z,27.4980,-83.7220,3.0,6.58,212.49,8.13,'1111122,1111122,1111122' 
COMPS,ioos:station:USF.COMPS:C12:1,2019-03-04T08:35:00Z,27.4980,-83.7220,3.0,6.21,215.1,7.59,'1111122,1111122,1111122' 
COMPS,ioos:station:USF.COMPS:C12:1,2019-03-04T09:05:00Z,27.4980,-83.7220,3.0,5.62,212.99,6.81,'1111122,1111122,1111122' 
COMPS,ioos:station:USF.COMPS:C12:1,2019-03-04T09:35:00Z,27.4980,-83.7220,3.0,5.99,217.28,7.22,'1111122,1111122,1111122' 
COMPS,ioos:station:USF.COMPS:C12:1,2019-03-04T10:05:00Z,27.4980,-83.7220,3.0,5.32,223.26,6.61,'1111122,1111122,1111122' 
COMPS,ioos:station:USF.COMPS:C12:1,2019-03-04T10:35:00Z,27.4980,-83.7220,3.0,5.04,223.56,6.18,'1111122,1111122,1111122' 
COMPS,ioos:station:USF.COMPS:C12:1,2019-03-04T11:05:00Z,27.4980,-83.7220,3.0,4.36,223.88,5.17,'1111122,1111122,1111122' 
COMPS,ioos:station:USF.COMPS:C12:1,2019-03-04T11:35:00Z,27.4980,-83.7220,3.0,2.98,302.87,4.66,'1111122,1111122,1111122' 
COMPS,ioos:station:USF.COMPS:C12:1,2019-03-04T12:05:00Z,27.4980,-83.7220,3.0,2.5,302.75,3.28,'1111122,1111122,1111122' 
COMPS,ioos:station:USF.COMPS:C12:1,2019-03-04T12:35:00Z,27.4980,-83.7220,3.0,1.49,261.08,2.1,'1111122,1111122,1111122' 
COMPS,ioos:station:USF.COMPS:C12:1,2019-03-04T13:05:00Z,27.4980,-83.7220,3.0,1.36,258.39,1.75,'1111122,1111122,1111122' 
COMPS,ioos:station:USF.COMPS:C12:1,2019-03-04T13:35:00Z,27.4980,-83.7220,3.0,2.15,286.41,3.0,'1111122,1111122,1111122' 
COMPS,ioos:station:USF.COMPS:C12:1,2019-03-04T14:05:00Z,27.4980,-83.7220,3.0,4.51,323.16,5.09,'1111122,1111122,1111122' 
COMPS,ioos:station:USF.COMPS:C12:1,2019-03-04T14:35:00Z,27.4980,-83.7220,3.0,4.93,328.56,6.09,'1111122,1111122,1111122' 
COMPS,ioos:station:USF.COMPS:C12:1,2019-03-04T15:05:00Z,27.4980,-83.7220,3.0,5.38,332.44,6.3,'1111122,1111122,1111122' 
COMPS,ioos:station:USF.COMPS:C12:1,2019-03-04T15:35:00Z,27.4980,-83.7220,3.0,5.74,332.41,6.89,'1111122,1111122,1111122' 
COMPS,ioos:station:USF.COMPS:C12:1,2019-03-04T16:05:00Z,27.4980,-83.7220,3.0,6.98,331.93,8.32,'1111122,1111122,1111122' 
COMPS,ioos:station:USF.COMPS:C12:1,2019-03-04T16:35:00Z,27.4980,-83.7220,3.0,7.04,331.21,8.28,'1111122,1111122,1111122' 
COMPS,ioos:station:USF.COMPS:C12:1,2019-03-04T17:05:00Z,27.4980,-83.7220,3.0,7.17,327.75,8.48,'1111122,1111122,1111122' 
COMPS,ioos:station:USF.COMPS:C12:1,2019-03-04T17:35:00Z,27.4980,-83.7220,3.0,6.99,332.64,8.33,'1111122,1111122,1111122' 
COMPS,ioos:station:USF.COMPS:C12:1,2019-03-04T18:05:00Z,27.4980,-83.7220,3.0,6.86,332.67,8.66,'1111122,1111122,1111122' 
COMPS,ioos:station:USF.COMPS:C12:1,2019-03-04T18:35:00Z,27.4980,-83.7220,3.0,6.45,336.43,8.14,'1111122,1111122,1111122' 
COMPS,ioos:station:USF.COMPS:C12:1,2019-03-04T19:05:00Z,27.4980,-83.7220,3.0,5.86,333.21,7.33,'1111122,1111122,1111122' 
COMPS,ioos:station:USF.COMPS:C12:1,2019-03-04T19:35:00Z,27.4980,-83.7220,3.0,6.06,336.92,7.3,'1111122,1111122,1111122' 
COMPS,ioos:station:USF.COMPS:C12:1,2019-03-04T20:05:00Z,27.4980,-83.7220,3.0,6.41,327.99,7.98,'1111122,1111122,1111122' 
COMPS,ioos:station:USF.COMPS:C12:1,2019-03-04T20:35:00Z,27.4980,-83.7220,3.0,6.77,328.64,8.08,'1111122,1111122,1111122' 
COMPS,ioos:station:USF.COMPS:C12:1,2019-03-04T21:05:00Z,27.4980,-83.7220,3.0,7.52,331.64,8.99,'1111122,1111122,1111122' 
COMPS,ioos:station:USF.COMPS:C12:1,2019-03-04T21:35:00Z,27.4980,-83.7220,3.0,7.33,330.49,8.79,'1111122,1111122,1111122' 
COMPS,ioos:station:USF.COMPS:C12:1,2019-03-04T22:05:00Z,27.4980,-83.7220,3.0,7.57,329.86,9.22,'1111122,1111122,1111122' 
COMPS,ioos:station:USF.COMPS:C12:1,2019-03-04T22:35:00Z,27.4980,-83.7220,3.0,7.25,334.9,9.11,'1111122,1111122,1111122' 
COMPS,ioos:station:USF.COMPS:C12:1,2019-03-04T23:05:00Z,27.4980,-83.7220,3.0,7.17,340.97,9.21,'1111122,1111122,1111122' 
COMPS,ioos:station:USF.COMPS:C12:1,2019-03-04T23:35:00Z,27.4980,-83.7220,3.0,6.9,330.99,8.47,'1111122,1111122,1111122' 
COMPS,ioos:station:USF.COMPS:C12:1,2019-03-05T00:05:00Z,27.4980,-83.7220,3.0,6.0,341.41,7.85,'1111122,1111122,1111122' 
COMPS,ioos:station:USF.COMPS:C12:1,2019-03-05T00:35:00Z,27.4980,-83.7220,3.0,6.51,349.06,9.44,'1111122,1111122,1111122' 
COMPS,ioos:station:USF.COMPS:C12:1,2019-03-05T01:05:00Z,27.4980,-83.7220,3.0,6.06,352.96,8.37,'1111122,1111122,1111122' 
COMPS,ioos:station:USF.COMPS:C12:1,2019-03-05T01:35:00Z,27.4980,-83.7220,3.0,6.06,353.05,7.94,'1111122,1111122,1111122' 
COMPS,ioos:station:USF.COMPS:C12:1,2019-03-05T02:05:00Z,27.4980,-83.7220,3.0,6.59,346.54,8.47,'1111122,1111122,1111122' 
COMPS,ioos:station:USF.COMPS:C12:1,2019-03-05T02:35:00Z,27.4980,-83.7220,3.0,6.63,349.19,8.46,'1111122,1111122,1111122' 